ONEWEB-0312, 49098

Orbit data source: Space-Track

ONEWEB-0312, 49098 is a payload satellite owned by One Web (NAA) (UK) in LEO that was launched on Sat, 21 Aug 2021 UTC via a SOYUZ-2-1B launch vehicle from the Tyuratam Missile And Space Complex (TTMTR). Payload-class satellites include a variety of spacecraft equipped with specific instruments for various scientific and technological missions. These include communications satellites like Starlink; space stations such as the ISS; scientific satellites like the Hubble; Earth observation satellites from companies like Planet Labs, Umbra, and HawkEye 360; GPS; miniature CubeSats for education and research; and military/defense satellites.

Loading next visibility...
Identifier
49098, 2021-075Z
Orbit
LEO
Country
Flag of UKUK
Related business
Manufacturer
One Web
Mission
Operational Commercial Communications
Bus & Motor
ARROW, Unknown motor
Mass
148 kg wet, ~140 kg dry
Launch date (UTC)
2021-08-21 (5 years ago)
Launch vehicle
SOYUZ-2-1B
Launch site
Tyuratam Missile And Space Complex (TTMTR)
Object type
Payload
Rocket body
Debris
Shape & HBR
Trap Box + 2 Pan, 6.7 m
Radar Cross Section
3.464 m², Large (>1 m²)

Expand to show TLE details & history
Last TLE update: 21 hours ago

TLE from 21 hours ago
0 ONEWEB-0312
1 49098U 21075Z   26175.24895830  .00000002  00000-0 -27095-4 0  9995
2 49098  87.9132   4.4682 0002225  89.7371 270.4016 13.17652892234533
Epoch: 2026-06-24T05:58Z
TLE epoch observation values (Epoch: 2026-06-24T05:58:29.997Z)
Latitude
0.00005°
Longitude
2.43433°
Altitude
1,196.585 km
Speed
7.256 km/s
True Right ascension
00h 17m 52s
True Declination
0° 00' 00"
Sunlit
Object was in daylight at epoch
Visualization orbit readout
Latitude
Unknown
Longitude
Unknown
Altitude
Unknown
Speed
Unknown
Apparent Right ascension
Unknown
Apparent Declination
Unknown
Sunlit
N/A
Visualization observer readout
Local Sidereal Time
13:56:27
Azimuth
Unknown
Elevation
Unknown
Doppler factor
Unknown
Orbital elements
Apogee altitude
1,192.491 km
Perigee altitude
1,189.123 km
Semi-major axis
7,568.944 km
Eccentricity
0.00022
Inclination
87.9132°
RAAN
4.4682°
Arg. of periapsis
89.7371°
True anomaly
270.3761°
Mean anomaly
270.4016°
Eccentric anomaly
270.38885°
Mean motion
3.29602 °/min
Orbital period
109.22 mins
BSTAR
-0.000027095
Loading maneuver chart data...
Computing Atmospheric mass density...
Loading historical data...
Loading historical data...
Loading historical data...
Loading historical data...
Loading historical data...
Loading historical data...
Loading historical data...

Documentation

Showing up to 5 results
|